This is the latest recevied weather packets stored in our database for station/object KD0SBN. If no packets are shown the sender has not sent any weather packets the latest 10 day(s).
| Time | Temp. | Humidity | Pressure | Rain* | Wind** | Luminosity | Snow |
|---|---|---|---|---|---|---|---|
| 1777666455 | 16.11° C | 41% | 1019.9 hPa | 0 mm | - | - | - |
| 1777666151 | 14.44° C | 47% | 1019.9 hPa | 0 mm | - | - | - |
| 1777665848 | 14.44° C | 44% | 1020.1 hPa | 0 mm | - | - | - |
| 1777665547 | 13.89° C | 46% | 1020.1 hPa | 0 mm | - | - | - |
| 1777665242 | 14.44° C | 46% | 1020.1 hPa | 0 mm | - | - | - |
| 1777664938 | 13.89° C | 44% | 1020.1 hPa | 0 mm | - | - | - |
| 1777664634 | 13.33° C | 47% | 1020.4 hPa | 0 mm | - | - | - |
| 1777664330 | 13.33° C | 45% | 1020.4 hPa | 0 mm | - | - | - |
| 1777664029 | 13.33° C | 46% | 1020.1 hPa | 0 mm | - | - | - |
| 1777663726 | 13.33° C | 48% | 1020.4 hPa | 0 mm | - | - | - |
| 1777663423 | 12.78° C | 45% | 1020.3 hPa | 0 mm | - | - | - |
| 1777663120 | 13.33° C | 47% | 1020.3 hPa | 0 mm | - | - | - |
| 1777662818 | 12.78° C | 48% | 1020.3 hPa | 0 mm | - | - | - |
| 1777662514 | 12.78° C | 47% | 1020.5 hPa | 0 mm | - | - | - |
| 1777662210 | 13.89° C | 46% | 1020.5 hPa | 0 mm | - | - | - |
| 1777661905 | 13.89° C | 45% | 1020.4 hPa | 0 mm | - | - | - |
| 1777661602 | 13.89° C | 45% | 1020.7 hPa | 0 mm | - | - | - |
| 1777661297 | 13.89° C | 45% | 1020.6 hPa | 0 mm | - | - | - |
| 1777660994 | 13.89° C | 47% | 1020.8 hPa | 0 mm | - | - | - |
| 1777660690 | 13.89° C | 50% | 1020.5 hPa | 0 mm | - | - | - |
| 1777660387 | 13.33° C | 46% | 1020.8 hPa | 0 mm | - | - | - |
| 1777660083 | 13.89° C | 48% | 1020.8 hPa | 0 mm | - | - | - |
| 1777659780 | 13.89° C | 45% | 1020.7 hPa | 0 mm | - | - | - |
| 1777659476 | 13.89° C | 50% | 1020.8 hPa | 0 mm | - | - | - |
| 1777659174 | 14.44° C | 53% | 1020.7 hPa | 0 mm | - | - | - |
* Rain latest hour (hover to see other rain measurements)
** Current wind speed in m/s (hover to see current wind gust speed)